Location: *
(41.7492°S, 135.4150°W)
Time: 18:44:42
(UTC+00:00)

BREEZE-M DEB (TANK) - Pass Details

Date: 20 September 2021
Orbit: 316 x 11911 km, 49.7° (Epoch: 16 October)

Event Time Altitude Azimuth Distance (km) Brightness Sun altitude
Exits shadow 14:05:29 11° 311° (NW) 1,229 4.7 -9.8°
Maximum altitude 14:07:44 70° 35° (NE) 470 3.2 -9.4°
Drops below altitude 10° 14:12:20 10° 119° (ESE) 2,448 8.0 -8.5°
Sets 14:16:26 0° 120° (ESE) 4,408 9.4 -7.7°
